Theta_e
310 310 308 306 308 310 308 306 305 305 304 304 304 303 303 303 303 303 305 309 309 309 312 310 315 314 312 314 316 316 313 314 316 318 319 322 321 324 330 331 329 329 329 329 329
310 310 310 309 306 306 306 305 305 305 305 305 304 304 303 303 303 304 310 308 309 311 312 310 316 316 316 315 315 314 314 316 318 319 319 321 321 322 324 327 327 328 329 327 326
308 309 309 310 310 306 306 305 305 304 304 304 304 303 303 302 304 310 315 309 310 311 311 310 316 316 315 316 315 316 315 318 319 320 321 321 321 322 321 322 324 326 326 325 323
308 308 309 308 309 310 307 308 307 307 307 305 303 303 302 302 323 324 319 316 311 310 309 310 313 314 313 313 316 314 317 319 319 320 321 321 321 320 321 321 322 321 322 322 321
307 307 306 307 308 310 310 307 309 308 308 307 306 303 302 312 309 316 315 313 313 310 308 313 316 318 314 314 316 315 316 319 319 320 320 321 320 320 320 321 321 321 321 321 320
304 305 306 308 309 309 310 311 308 309 309 309 307 305 303 313 320 317 315 311 309 308 309 316 317 317 317 316 314 318 318 319 320 320 320 319 318 320 320 320 320 320 320 320 320
305 308 310 312 312 312 311 311 308 312 311 311 312 309 310 308 318 318 317 312 312 310 319 317 317 316 318 314 318 318 316 317 318 319 318 319 317 317 320 319 320 320 320 320 320
307 309 312 313 313 313 314 312 309 312 312 312 312 311 314 317 315 318 318 318 318 320 320 318 317 318 319 319 318 317 317 314 316 318 319 318 316 318 320 320 320 320 320 320 320
312 313 313 313 313 314 313 313 308 308 312 313 313 317 320 319 318 315 316 319 320 318 315 319 319 319 319 316 315 316 316 317 317 318 318 318 316 318 319 320 321 320 320 320 320
314 314 313 312 311 312 313 314 309 310 315 313 315 317 319 320 318 316 315 320 319 316 318 318 317 315 314 313 314 316 317 317 318 318 318 317 316 317 319 320 321 321 321 321 320
313 313 313 312 311 311 312 313 321 321 319 318 318 317 320 320 317 314 312 319 319 317 315 317 314 314 314 315 316 317 317 317 317 318 319 317 317 317 319 320 320 320 321 320 320
312 312 313 312 311 313 312 312 315 318 319 319 320 320 320 321 320 317 313 318 320 317 316 316 315 317 319 319 318 318 317 317 318 319 318 317 318 318 318 319 321 320 321 321 322
312 312 312 311 313 314 314 315 315 318 317 318 320 321 319 320 319 318 313 315 319 318 317 316 318 319 320 319 319 318 318 319 319 319 318 317 317 318 320 320 321 321 321 322 321
311 312 311 312 315 318 318 318 318 318 318 322 321 321 321 320 319 318 318 316 318 318 317 317 318 320 320 320 319 317 318 318 320 319 316 318 317 317 319 319 320 321 321 321 322
311 312 311 311 314 317 319 319 319 318 326 323 320 320 319 319 318 318 318 317 317 318 318 319 319 317 318 318 318 319 319 317 318 317 318 318 316 317 319 319 319 319 321 322 322
311 311 311 313 318 318 318 318 318 322 328 323 321 320 318 319 319 318 318 318 318 317 317 318 319 317 317 318 318 319 319 318 317 316 316 317 318 317 318 319 320 322 323 322 323
311 312 312 312 320 319 318 318 319 325 327 326 322 320 320 320 319 319 319 318 317 317 318 319 319 318 319 317 317 318 317 316 318 317 319 319 319 318 319 325 325 323 324 323 322
311 315 317 316 318 318 318 319 323 328 326 325 323 321 320 321 320 320 320 319 318 317 318 320 321 321 321 319 317 317 318 318 320 319 319 320 323 323 323 324 324 324 323 323 322
311 315 320 319 318 318 318 321 327 325 322 322 322 322 322 324 324 321 320 320 322 322 325 325 325 322 323 323 322 321 322 319 321 320 320 321 322 322 324 325 324 324 323 322 322
313 318 321 320 318 318 320 324 326 321 320 321 321 323 325 327 327 324 324 324 323 323 321 323 324 321 321 321 321 322 321 322 321 325 325 324 322 325 324 324 324 323 323 321 321
313 321 319 318 317 320 323 326 324 320 319 321 322 323 323 323 323 324 324 322 321 320 319 320 322 323 321 322 321 320 321 320 319 324 323 321 322 323 325 323 322 320 321 321 323
314 322 321 319 321 323 325 324 321 320 320 320 320 321 322 322 322 322 322 321 320 320 321 321 321 323 322 319 319 318 319 323 327 327 323 319 323 321 322 320 320 320 320 321 321
311 318 321 320 321 323 325 323 323 320 320 320 321 320 320 320 320 321 320 319 318 319 322 321 320 319 319 318 321 322 321 320 324 323 327 328 325 320 319 321 320 319 320 320 321
312 321 320 320 320 321 323 322 322 319 317 318 319 318 318 319 318 318 319 319 317 319 319 318 318 319 318 319 318 319 319 319 321 324 326 324 323 320 318 321 320 320 319 320 321
314 320 317 319 319 320 319 318 319 319 317 316 318 318 317 317 316 317 318 316 317 319 318 316 318 317 316 317 316 316 316 316 316 316 321 320 320 319 317 316 317 319 318 319 320
314 315 315 314 317 317 316 317 318 317 316 318 317 317 315 315 315 315 314 314 316 317 318 318 318 316 317 315 316 317 316 316 316 316 316 316 316 315 317 318 317 317 317 317 317
312 313 313 315 315 317 317 318 316 315 315 314 314 314 314 314 313 313 314 314 314 315 314 316 317 317 317 315 315 314 314 315 317 317 317 317 316 317 316 317 315 315 316 315 314
Wind_Speed
25 25 23 19 15 13 11 9 7 8 7 6 6 7 8 9 11 17 24 21 20 20 11 8 9 7 9 9 16 15 2 5 8 9 9 27 7 22 10 11 6 6 19 15 8
22 24 24 23 18 15 12 10 8 6 6 6 6 6 7 9 13 22 18 17 20 12 15 13 9 10 11 7 7 7 5 8 8 11 8 18 7 16 10 5 5 12 13 6 3
19 21 22 23 23 17 13 11 9 7 5 5 5 6 6 8 11 8 2 15 18 17 15 14 12 15 17 18 16 5 9 7 16 24 18 7 10 10 10 5 7 1 7 10 12
19 19 19 21 21 21 15 12 10 8 6 5 4 5 5 5 2 0 4 6 13 15 15 18 18 14 9 8 25 9 18 17 28 27 21 5 10 6 9 10 15 13 8 8 10
19 19 19 18 19 19 19 14 10 8 7 5 4 4 5 4 11 6 5 5 13 16 19 18 16 18 6 12 20 10 10 25 32 28 25 12 7 9 13 14 16 16 13 15 14
16 19 19 20 18 18 17 18 11 8 5 5 4 4 4 5 5 6 6 5 11 17 19 15 15 16 16 14 10 19 23 21 26 28 19 9 8 12 17 19 18 16 16 18 21
17 16 18 20 20 18 19 19 10 7 6 6 5 5 8 17 3 3 3 7 8 14 12 9 17 21 17 9 18 18 8 8 13 7 11 18 8 9 22 22 22 22 21 17 19
19 19 18 18 21 20 18 19 8 7 7 8 7 7 10 5 6 12 3 4 7 10 10 14 16 15 7 15 15 8 5 5 5 7 15 14 10 10 20 27 29 29 20 18 22
21 22 21 21 20 21 18 15 8 8 8 7 5 6 11 5 14 14 20 12 12 10 13 9 4 4 10 5 6 5 5 8 10 16 16 17 8 11 28 19 11 25 19 18 21
23 23 24 25 24 21 18 14 9 9 7 7 7 8 11 9 12 17 19 16 13 10 8 7 2 3 4 1 6 8 7 8 13 14 14 16 12 9 15 10 11 14 15 14 19
24 25 27 27 27 27 17 11 5 2 9 11 10 8 9 2 8 10 17 17 15 15 7 14 4 7 12 11 13 11 12 11 9 9 6 4 8 8 13 7 12 21 24 27 27
25 24 26 29 29 24 18 11 12 4 10 17 21 26 25 11 7 11 17 15 13 7 8 6 10 11 12 13 12 13 13 12 7 8 6 7 7 7 8 7 17 18 29 31 29
24 24 26 30 25 14 13 20 5 4 6 15 26 23 16 8 8 9 21 20 6 8 8 9 10 17 17 13 12 9 6 7 5 10 9 8 8 8 4 12 23 28 26 22 20
24 24 26 26 11 4 5 5 6 3 3 6 7 13 16 10 6 19 10 15 5 9 12 8 13 17 12 11 7 6 10 12 7 5 5 5 10 7 7 13 14 27 32 31 23
25 24 25 18 11 10 5 2 2 10 3 10 9 10 13 17 5 11 13 16 7 10 5 7 7 9 9 6 12 3 8 10 7 5 2 6 3 6 7 10 13 11 32 38 28
25 25 20 9 9 3 5 5 5 1 6 10 10 9 10 13 14 18 12 11 8 6 9 12 17 6 4 10 8 7 6 7 5 2 7 6 5 5 10 11 11 12 24 27 32
24 19 13 9 3 1 5 9 1 4 4 2 8 13 14 11 9 10 12 9 6 5 9 13 14 13 16 9 8 4 3 4 4 3 5 8 11 12 10 3 5 4 20 31 29
26 8 6 4 8 5 5 2 4 1 1 9 11 15 14 12 10 14 13 8 12 11 7 5 9 14 8 9 5 8 5 4 5 4 7 8 4 5 12 14 16 9 26 26 23
20 8 11 4 8 6 2 4 2 5 7 8 6 4 6 9 5 10 13 13 7 1 1 3 4 12 10 9 2 4 7 7 4 7 4 4 10 10 6 10 5 12 21 18 15
21 13 12 7 9 8 3 5 4 5 7 6 4 5 4 6 9 7 5 4 4 3 7 3 4 6 6 9 8 2 4 6 1 3 4 4 6 2 8 9 6 8 7 10 10
15 7 6 5 11 6 3 5 6 8 4 5 7 6 6 2 8 3 0 3 7 7 7 5 2 4 6 1 4 5 6 5 3 6 5 1 5 6 8 8 7 12 24 15 4
3 3 10 13 3 5 4 1 10 2 8 2 2 3 5 6 4 4 2 6 8 6 4 2 1 2 4 11 10 6 7 1 2 5 3 3 11 11 5 5 7 12 20 23 24
13 7 10 12 3 4 4 10 12 1 6 6 5 6 6 3 3 5 6 13 11 5 3 2 2 3 6 5 7 5 8 5 4 2 4 5 4 3 6 2 5 12 20 25 22
6 3 4 12 15 6 2 6 7 9 2 3 5 6 1 3 4 2 4 3 6 7 7 5 2 4 4 6 7 7 10 10 4 3 2 8 14 13 9 5 7 12 20 24 25
3 3 9 3 4 5 6 8 10 4 6 6 2 1 5 3 6 4 1 7 1 14 6 2 2 5 7 11 14 15 15 13 16 14 13 13 18 12 10 10 11 21 22 21 28
5 6 11 12 14 4 2 5 7 7 4 5 4 9 8 3 3 6 5 4 3 2 3 3 1 4 4 12 15 19 17 19 18 20 22 20 23 11 21 25 15 8 9 9 12
9 9 6 8 7 4 3 3 8 5 1 6 8 3 4 7 10 12 11 10 8 3 2 4 1 1 2 7 13 9 15 15 16 17 12 16 7 11 8 8 13 17 22 22 23
Wind_Direction
14 17 13 4 357 347 337 329 315 302 291 284 279 269 266 263 258 254 243 237 228 230 233 231 221 226 212 236 225 248 193 249 250 261 271 295 340 342 199 177 118 149 114 125 150
7 10 14 13 4 357 348 336 324 309 300 293 280 274 273 275 270 258 259 232 217 205 217 225 202 208 212 234 236 188 179 234 252 267 274 289 353 340 354 123 142 142 235 271 250
358 3 6 10 12 2 357 349 337 327 314 298 283 271 273 283 301 272 256 215 207 215 225 213 217 220 216 231 228 235 231 237 252 262 284 327 333 329 357 343 24 71 206 261 294
347 353 359 1 6 7 354 348 342 337 330 312 291 279 273 276 159 171 348 201 194 210 220 210 236 254 200 215 240 242 238 243 264 269 279 277 304 302 287 285 300 316 304 302 308
337 343 348 353 355 358 0 341 335 334 335 317 303 296 281 269 260 294 337 178 199 208 204 192 231 246 216 216 240 235 227 231 247 261 276 267 257 279 296 279 281 280 287 280 282
337 336 339 342 345 345 348 346 320 318 323 328 313 292 259 250 176 255 276 192 203 193 187 210 240 224 246 238 225 241 229 234 245 252 260 257 257 242 264 277 273 271 254 259 264
333 332 332 334 335 337 336 340 310 301 304 301 311 293 263 242 193 273 303 183 165 174 183 230 246 258 270 262 274 272 275 253 228 237 261 265 259 242 244 248 253 251 229 240 250
330 330 330 327 327 328 329 335 312 277 287 286 283 291 261 146 209 210 194 195 187 222 241 239 265 258 310 306 313 298 326 263 267 245 241 228 250 242 246 243 241 242 221 233 234
330 329 327 323 319 317 319 324 309 278 276 260 253 280 266 255 214 218 214 212 217 217 235 262 336 328 278 289 311 295 226 268 267 238 240 209 224 224 246 266 276 216 207 238 248
329 325 324 320 319 313 306 302 293 280 270 225 206 294 239 220 218 201 194 209 210 200 229 242 255 229 294 234 225 242 254 235 247 263 229 235 213 224 244 210 188 188 212 234 227
323 320 318 319 318 312 297 284 278 211 202 209 213 219 272 182 128 195 199 202 214 191 203 226 186 228 224 227 237 261 271 276 278 293 17 226 192 210 232 249 216 214 218 223 224
319 314 317 315 317 305 282 233 218 332 287 266 244 254 261 276 257 203 192 209 211 217 191 253 225 233 253 256 241 245 259 276 278 309 333 301 268 238 231 247 270 237 224 225 221
318 317 318 316 315 302 280 246 214 306 287 283 238 231 233 231 255 217 190 207 196 223 229 202 237 225 236 246 260 274 266 273 273 310 316 331 309 285 254 273 263 259 258 237 223
320 319 321 323 310 258 307 114 149 174 299 260 176 212 217 207 255 237 228 195 232 232 226 238 241 252 264 233 222 263 284 287 255 245 259 286 285 293 257 249 249 245 240 240 222
320 320 322 317 289 275 1 355 29 192 286 135 151 155 178 178 148 193 203 196 227 248 287 277 313 334 325 296 346 240 283 250 274 266 254 269 262 252 246 278 272 238 230 230 215
318 320 315 292 291 263 34 68 118 210 241 166 139 182 146 204 242 154 193 184 224 250 272 269 279 282 261 285 302 320 7 15 5 342 272 247 244 274 259 251 279 295 246 188 156
320 313 290 255 190 107 299 302 225 237 210 293 172 160 180 193 226 155 175 186 194 196 238 257 263 246 247 252 280 279 30 344 332 308 259 245 254 241 269 264 29 13 94 127 129
324 274 282 268 168 78 324 302 253 164 212 276 139 173 191 185 207 175 181 204 204 237 273 247 255 233 236 231 236 266 198 207 253 226 258 267 264 273 314 315 20 24 122 127 131
329 272 280 189 161 144 278 244 274 310 17 15 335 273 230 157 272 197 183 201 189 160 81 2 265 331 192 281 303 254 284 205 12 326 305 249 294 275 13 28 36 47 125 132 141
327 319 269 174 154 172 195 251 284 36 39 338 295 340 77 121 355 26 58 26 75 95 143 233 324 307 353 15 332 297 272 276 78 274 266 259 262 254 14 347 7 6 74 122 152
324 325 162 179 155 200 226 256 304 112 54 352 9 351 48 119 161 150 195 57 54 24 12 42 140 295 341 215 269 318 314 284 165 152 196 240 260 161 24 19 27 14 4 10 292
336 267 190 184 165 223 254 295 279 82 107 252 272 350 48 41 13 1 49 53 68 33 358 75 41 285 266 287 284 297 288 22 151 265 279 212 248 305 106 63 29 351 336 330 330
335 274 198 188 239 236 27 325 284 354 46 9 23 59 72 68 42 355 29 105 79 41 41 349 14 331 308 296 36 47 333 342 121 84 220 239 271 311 305 130 27 335 307 300 295
318 296 183 204 234 282 272 196 252 91 124 60 18 43 336 294 144 223 347 84 120 96 106 51 277 206 223 289 322 294 291 291 214 235 257 242 276 277 282 260 243 263 258 266 260
257 303 5 329 14 343 12 320 315 138 58 67 302 242 79 19 9 332 44 355 68 154 125 115 198 300 299 305 300 287 281 271 269 265 238 268 264 267 269 261 250 263 268 268 257
322 358 341 301 315 327 271 260 263 85 49 98 36 45 56 36 294 304 349 14 268 134 77 50 289 360 286 273 268 270 263 258 255 258 264 275 275 272 256 269 291 355 31 11 8
350 335 342 294 310 310 290 79 60 59 305 49 32 14 7 35 354 333 306 274 246 222 105 121 121 308 251 329 328 307 256 258 259 256 252 264 307 23 14 38 33 20 44 36 17